Wind_Speed
5 4 5 6 7 8 9 10 11 12 14 14 14 15 16 15 13 13 13 13 13 13 13 13 13 13 12 12 12 12 12 13 13 13 13 14 14 14 15 15 16 17 18 18 18 18 18 19 19
7 6 7 7 7 8 9 10 10 11 12 13 13 14 15 14 13 13 12 12 12 13 13 13 13 13 13 13 13 13 13 13 13 13 13 14 15 15 16 16 17 17 17 18 18 18 18 19 19
9 9 8 8 8 9 10 10 11 11 11 12 13 14 14 12 12 13 13 13 12 12 12 13 13 13 13 13 13 13 13 13 14 14 15 15 16 16 17 17 17 17 18 18 19 19 19 19 20
11 11 10 10 10 11 11 11 11 11 11 12 13 14 13 12 12 13 13 13 13 13 13 13 14 14 14 13 14 14 14 15 15 15 16 16 16 17 17 17 18 18 19 19 19 19 20 20 21
15 14 13 12 12 12 11 11 11 12 12 13 14 14 12 13 12 13 13 13 14 14 14 14 14 13 14 14 15 15 16 16 16 16 17 17 17 17 17 18 19 19 20 20 20 20 21 21 22
18 17 16 14 14 14 13 12 13 14 14 14 14 14 12 13 13 13 13 13 13 14 14 14 14 14 15 16 16 16 16 17 17 17 17 17 17 18 18 19 20 20 21 21 22 22 23 23 23
22 20 19 18 17 16 15 14 15 15 15 15 15 15 13 14 14 14 13 13 14 14 15 15 15 16 16 16 17 17 16 16 17 17 18 18 18 18 19 20 21 21 22 23 23 24 24 25 25
26 24 22 21 20 19 17 16 17 17 18 17 17 17 14 14 15 15 15 14 15 15 16 16 16 16 17 17 17 17 17 17 17 18 18 19 19 20 21 22 22 23 23 24 25 25 25 26 26
30 28 25 24 23 22 20 19 19 19 19 18 19 18 15 16 17 17 16 16 16 16 16 17 17 17 17 18 17 17 17 18 18 19 20 20 21 22 23 23 24 24 25 25 26 26 26 27 27
33 31 29 29 27 26 24 22 21 21 21 21 21 20 19 18 18 18 18 18 18 18 18 18 18 18 18 18 18 18 19 19 20 21 22 22 23 24 24 25 25 25 26 27 27 27 27 28 28
36 34 33 32 31 28 27 25 25 24 23 23 23 22 21 20 20 20 20 19 19 19 19 19 19 19 19 19 20 20 21 22 22 23 24 24 25 25 26 26 27 27 27 28 28 29 29 29 29
39 37 37 36 34 32 31 29 28 27 27 27 26 24 22 23 22 22 22 22 21 21 21 21 21 21 22 22 22 23 23 24 25 25 26 26 27 27 28 28 28 28 29 29 29 30 30 30 30
42 40 39 38 37 35 34 33 31 30 30 29 28 27 25 26 25 25 25 24 24 24 24 24 24 24 24 24 24 25 26 26 27 27 28 28 29 29 30 30 30 30 30 30 31 31 31 31 32
43 42 41 40 39 38 37 36 35 33 33 32 31 30 29 28 28 27 27 27 27 27 27 27 27 27 27 27 27 28 28 29 29 30 30 31 31 31 31 31 31 31 31 32 32 32 32 32 32
44 44 43 42 42 40 40 39 38 36 36 35 34 33 33 31 31 30 30 30 30 30 29 30 30 30 30 30 30 30 31 31 31 32 32 32 33 33 33 33 33 33 33 33 33 33 33 33 33
45 45 44 43 44 43 43 40 39 39 39 38 37 36 35 34 33 33 33 33 33 33 32 32 33 33 32 33 33 33 32 33 33 34 34 34 34 34 34 34 34 34 34 34 34 34 34 34 34
46 45 43 43 45 45 46 43 41 42 41 40 39 38 38 37 37 36 36 36 36 36 36 35 36 36 35 35 35 35 35 35 35 35 36 36 36 36 36 36 35 35 35 35 35 35 35 35 35
43 43 43 43 45 46 46 45 43 44 43 42 41 41 40 40 39 40 40 39 39 39 39 38 38 38 38 37 37 37 37 37 37 37 37 37 37 37 36 36 36 36 36 36 36 36 35 35 35
43 44 44 44 45 46 45 44 44 45 45 44 43 42 42 42 42 42 42 41 41 41 41 40 40 40 40 40 39 39 38 38 38 38 38 38 38 37 36 36 36 36 37 37 36 36 36 36 37
44 44 44 44 45 46 45 44 42 43 44 44 44 43 43 44 44 44 43 43 42 42 43 42 42 42 42 42 41 41 40 40 39 39 39 39 38 37 37 37 37 37 37 37 37 37 37 38 38
45 45 43 43 44 47 47 45 43 42 43 43 43 43 44 44 44 45 45 44 44 43 43 44 43 42 43 43 42 41 40 40 40 40 40 40 39 38 38 38 38 38 38 38 38 38 39 39 40
45 42 42 43 45 45 46 48 43 42 42 42 43 42 43 44 44 44 44 44 45 44 45 45 44 44 43 43 42 42 42 41 41 40 40 40 39 38 38 38 38 38 38 38 38 39 40 40 41
43 42 43 43 44 45 45 49 44 41 41 41 42 42 42 43 43 43 43 43 43 44 44 44 44 44 43 43 43 43 42 42 41 41 40 40 39 39 38 38 38 38 39 39 39 40 41 41 42
43 43 43 43 44 46 42 45 46 41 39 39 39 40 41 41 42 42 43 42 42 42 42 42 43 43 42 43 43 43 42 42 41 41 40 39 39 38 38 38 38 38 39 40 40 41 42 42 42
45 44 43 43 45 45 40 43 44 39 37 37 37 38 39 40 40 41 41 41 40 40 40 40 40 40 41 41 42 41 41 41 40 40 39 38 38 38 38 39 39 39 40 41 41 42 43 43 43
44 43 43 42 42 42 42 43 40 36 35 34 34 36 36 37 38 39 39 39 39 39 39 39 39 39 39 39 40 40 40 39 39 39 38 38 38 38 39 39 39 40 40 42 42 42 42 44 45
44 44 41 41 42 42 43 41 37 34 33 33 33 34 34 35 36 37 37 37 37 37 37 37 37 37 37 38 38 38 38 38 38 38 38 38 38 38 39 39 40 41 42 42 42 43 44 45 46
45 42 42 43 43 43 42 40 36 34 32 31 31 31 32 33 33 34 34 34 34 34 34 35 35 35 35 35 36 36 36 36 37 37 37 38 38 39 39 39 41 41 41 42 43 44 45 46 46
44 45 45 44 44 43 42 39 35 33 31 30 30 30 30 30 31 31 31 31 32 32 32 32 32 33 33 33 34 35 35 36 36 37 37 37 38 39 39 40 41 41 42 43 43 44 45 46 47
43 43 44 45 44 42 41 39 35 33 31 30 29 29 28 29 29 29 29 30 30 30 31 31 31 31 32 32 33 33 34 34 35 35 36 37 38 39 39 40 41 42 43 43 44 45 46 47 48
Wind_Direction
258 244 221 209 204 203 201 204 208 209 212 215 216 219 223 227 230 230 228 229 229 231 235 239 243 246 250 255 262 268 273 277 280 283 286 289 291 292 293 295 295 296 296 296 296 296 295 294 292
249 240 227 216 212 207 206 208 212 212 214 215 216 220 223 224 225 227 228 229 230 232 237 241 246 250 254 259 264 268 272 275 279 284 288 291 293 294 295 296 296 296 297 297 298 297 296 295 294
244 239 230 223 220 216 214 211 213 214 214 214 216 221 223 221 222 228 229 229 230 234 239 243 249 255 259 263 265 268 272 276 280 284 288 290 291 293 294 295 296 296 296 297 297 296 296 295 294
241 237 233 229 224 223 223 215 215 213 214 216 219 222 223 223 222 228 230 230 233 237 243 248 253 258 261 263 267 271 275 278 282 285 287 290 291 292 292 293 295 295 296 296 296 296 295 294 293
239 237 234 230 228 227 227 224 220 217 216 220 224 225 221 225 224 228 232 233 236 239 244 249 253 256 260 264 268 272 275 278 281 284 286 288 290 292 293 294 295 296 296 296 295 295 294 293 292
239 237 235 231 230 230 228 227 224 224 222 223 227 229 220 224 227 230 234 237 239 243 247 251 254 258 263 267 271 273 276 278 281 283 285 287 290 291 292 293 294 294 294 294 294 294 293 292 292
239 237 236 233 232 232 230 228 228 229 228 227 229 233 225 228 230 232 236 239 243 247 251 255 258 262 265 268 272 275 277 279 281 284 286 287 289 291 292 293 293 293 293 293 293 293 292 291 291
239 238 236 236 235 234 232 230 231 232 233 233 234 237 232 232 235 237 240 244 248 251 254 258 262 265 268 270 273 275 277 279 282 284 286 288 289 290 290 291 291 292 292 292 292 291 291 291 291
238 238 236 237 236 236 234 232 233 235 237 237 239 242 239 238 240 242 245 248 252 255 258 261 264 267 269 271 273 275 278 280 282 284 286 288 289 290 291 291 291 291 291 291 291 291 291 291 291
238 237 237 237 237 237 236 235 236 237 240 240 243 245 245 244 244 245 248 251 254 258 259 261 264 267 270 272 274 276 278 281 283 285 286 288 289 290 290 291 291 291 291 291 291 291 291 291 292
238 237 237 238 238 239 238 237 239 239 242 243 244 245 247 248 248 248 250 254 256 259 261 263 265 267 270 272 275 278 280 282 284 286 287 289 289 290 291 291 291 291 291 291 291 291 291 291 291
238 237 237 238 238 238 239 238 240 241 243 244 246 247 247 250 250 252 253 255 258 260 263 265 267 269 271 273 276 278 281 283 285 287 288 289 290 291 291 290 290 290 290 290 290 290 290 290 290
237 237 238 239 239 238 240 240 241 242 245 247 248 249 248 251 253 255 256 258 260 263 265 267 269 271 273 275 277 279 281 283 285 287 288 289 290 291 291 290 289 289 289 289 289 289 289 290 290
238 237 238 239 240 240 240 241 242 243 245 247 249 250 251 252 254 257 259 260 262 264 267 269 271 272 274 276 278 280 282 283 285 286 287 288 289 290 290 289 289 288 289 289 289 289 289 289 289
239 238 238 239 240 242 242 242 243 244 246 247 249 251 253 254 256 258 261 262 264 266 268 271 272 274 276 277 278 281 282 283 284 285 286 287 288 289 289 289 289 288 289 289 288 289 289 289 289
239 240 240 240 242 242 243 243 244 245 246 248 250 252 253 255 257 259 261 263 266 268 269 271 273 274 275 277 278 280 281 282 283 284 285 286 288 288 289 288 288 288 288 288 288 289 289 289 288
239 241 242 242 243 243 244 244 245 247 247 249 251 252 254 255 257 260 262 264 267 269 270 272 273 274 275 276 278 280 281 282 282 282 283 285 287 288 288 288 287 287 288 288 288 288 288 288 288
242 243 243 244 245 246 246 245 246 248 249 250 252 253 255 257 258 260 262 264 267 269 270 271 272 274 276 277 278 280 280 280 281 281 282 284 285 286 287 286 286 287 287 287 287 287 288 288 287
242 243 243 244 246 248 248 248 248 249 251 251 253 254 256 258 259 261 262 264 266 269 270 271 272 274 276 277 277 278 279 279 280 281 282 283 284 285 285 285 285 286 287 286 286 287 288 288 287
241 243 245 247 248 250 251 250 250 252 254 254 254 255 256 258 260 261 263 265 266 268 270 271 271 273 274 276 276 277 278 279 280 280 281 281 282 283 284 285 285 286 286 286 286 287 287 288 288
241 243 245 248 250 251 253 252 252 253 255 256 257 257 257 259 261 262 264 265 266 268 269 270 271 272 274 275 275 276 277 278 279 279 279 280 280 281 283 284 284 285 285 286 286 287 288 289 289
241 243 245 247 249 251 254 255 252 254 255 257 258 259 259 260 262 263 265 265 266 267 268 270 271 272 272 273 274 274 275 276 277 277 278 278 279 280 281 283 283 284 285 286 286 287 289 289 290
242 243 245 247 249 251 253 257 254 255 256 257 259 260 261 261 263 264 265 266 267 268 268 269 271 271 271 272 272 273 274 275 275 276 277 278 278 279 280 282 283 283 285 285 286 288 289 290 292
239 241 244 247 249 251 252 257 258 257 258 259 261 262 263 264 264 265 266 267 268 269 269 270 270 270 270 270 271 272 272 273 274 275 276 276 277 278 279 281 282 283 284 285 287 289 290 291 292
236 238 241 245 249 252 254 256 259 260 261 262 263 263 264 265 266 266 267 268 268 269 269 270 270 270 270 270 270 270 271 272 273 274 274 275 276 277 278 280 282 283 285 286 289 291 291 292 293
238 239 241 246 251 255 255 255 258 261 262 262 263 264 264 265 266 267 268 268 269 269 269 270 269 269 269 269 269 269 270 271 271 272 273 274 276 277 279 281 282 285 286 288 290 291 292 293 295
237 239 242 244 247 251 255 257 258 260 263 263 263 265 265 266 267 268 269 269 269 269 270 270 269 269 269 268 268 269 269 270 271 271 272 274 276 278 279 281 284 286 287 289 290 291 293 295 296
236 237 237 240 244 248 253 257 261 261 262 263 264 265 266 267 267 268 269 269 269 269 269 269 269 268 268 268 268 268 268 269 270 271 273 274 276 278 280 282 284 287 289 290 291 292 293 296 297
234 234 236 240 244 248 253 257 260 263 263 265 265 266 266 268 268 269 269 269 270 270 270 269 269 269 268 268 268 268 269 271 272 273 274 275 277 279 281 283 286 288 289 291 292 293 295 296 297
236 236 238 240 243 247 252 254 258 262 264 265 267 268 268 269 269 269 269 269 270 270 270 270 269 269 269 269 270 270 271 272 273 274 275 277 279 280 281 284 286 288 290 292 293 294 296 297 297
Height
5845 5845 5845 5846 5847 5847 5847 5848 5848 5849 5851 5852 5854 5855 5856 5858 5861 5865 5865 5865 5867 5868 5869 5870 5872 5873 5873 5874 5875 5876 5876 5876 5877 5877 5877 5877 5877 5876 5876 5876 5875 5875 5874 5873 5873 5872 5871 5870 5870
5844 5844 5845 5845 5846 5846 5846 5846 5847 5848 5849 5851 5852 5853 5855 5856 5858 5860 5861 5863 5865 5866 5867 5869 5870 5871 5871 5872 5873 5873 5874 5874 5874 5874 5874 5874 5874 5874 5873 5873 5872 5872 5871 5870 5870 5869 5868 5867 5866
5843 5843 5844 5844 5844 5845 5845 5845 5846 5847 5848 5849 5851 5852 5853 5855 5857 5858 5859 5861 5863 5864 5865 5866 5867 5868 5869 5870 5870 5871 5871 5872 5872 5872 5872 5871 5871 5871 5870 5870 5869 5869 5868 5867 5866 5866 5865 5864 5863
5841 5842 5843 5843 5843 5843 5843 5844 5844 5845 5847 5848 5849 5850 5851 5853 5855 5856 5857 5859 5861 5862 5863 5864 5865 5866 5867 5867 5868 5868 5869 5869 5869 5869 5869 5868 5868 5868 5867 5867 5866 5865 5865 5864 5863 5862 5861 5860 5859
5838 5839 5840 5841 5841 5841 5841 5842 5843 5844 5845 5846 5847 5848 5850 5851 5853 5854 5855 5857 5858 5860 5861 5862 5863 5863 5864 5865 5865 5866 5866 5866 5866 5866 5866 5865 5865 5865 5864 5863 5863 5862 5861 5860 5859 5858 5857 5856 5855
5836 5837 5838 5838 5838 5839 5840 5841 5842 5842 5843 5844 5845 5846 5848 5849 5851 5852 5853 5855 5856 5858 5859 5859 5860 5861 5861 5862 5862 5863 5863 5863 5863 5863 5862 5862 5862 5861 5861 5860 5859 5858 5857 5857 5856 5855 5854 5852 5851
5833 5834 5834 5835 5835 5836 5838 5839 5840 5841 5841 5843 5844 5844 5846 5847 5849 5850 5851 5852 5854 5855 5856 5857 5858 5858 5859 5859 5859 5859 5860 5860 5859 5859 5859 5859 5858 5858 5857 5856 5855 5854 5853 5852 5851 5850 5849 5848 5847
5827 5830 5831 5832 5832 5833 5835 5836 5837 5838 5839 5840 5841 5842 5844 5846 5846 5848 5848 5850 5851 5852 5853 5854 5855 5855 5855 5856 5856 5856 5856 5856 5856 5856 5855 5855 5854 5854 5853 5852 5851 5850 5849 5848 5847 5846 5845 5843 5842
5821 5826 5827 5828 5829 5830 5831 5833 5834 5835 5836 5837 5838 5839 5842 5843 5844 5845 5846 5847 5848 5849 5850 5851 5852 5852 5852 5852 5853 5853 5853 5853 5853 5852 5852 5851 5851 5850 5849 5848 5847 5846 5844 5843 5842 5841 5840 5838 5837
5816 5820 5822 5822 5824 5825 5827 5829 5831 5832 5833 5834 5835 5837 5838 5840 5841 5842 5843 5844 5845 5846 5847 5848 5848 5848 5849 5849 5849 5849 5849 5849 5849 5848 5848 5847 5846 5845 5844 5843 5842 5841 5840 5838 5837 5836 5835 5833 5832
5810 5813 5815 5816 5819 5821 5823 5825 5826 5828 5829 5831 5832 5833 5835 5836 5837 5838 5839 5840 5841 5842 5843 5844 5844 5845 5845 5845 5845 5845 5845 5845 5845 5844 5843 5843 5842 5841 5839 5838 5837 5836 5835 5833 5832 5830 5829 5828 5826
5803 5806 5808 5810 5813 5816 5818 5820 5822 5824 5826 5826 5827 5829 5832 5832 5834 5835 5836 5837 5838 5838 5839 5839 5840 5841 5841 5841 5841 5841 5841 5840 5840 5839 5838 5837 5836 5835 5834 5833 5832 5830 5829 5828 5826 5825 5824 5822 5821
5794 5798 5801 5803 5806 5810 5812 5815 5817 5819 5820 5821 5823 5825 5827 5828 5829 5830 5831 5832 5834 5834 5835 5835 5836 5836 5836 5837 5836 5836 5836 5835 5835 5834 5833 5832 5831 5830 5828 5827 5826 5824 5823 5822 5820 5819 5817 5816 5814
5786 5790 5793 5796 5799 5802 5806 5808 5811 5814 5815 5816 5818 5820 5822 5823 5825 5826 5827 5828 5829 5830 5830 5830 5831 5831 5831 5831 5831 5831 5831 5830 5829 5828 5827 5826 5825 5824 5822 5821 5820 5818 5817 5815 5814 5812 5811 5809 5808
5778 5782 5785 5789 5792 5795 5798 5802 5805 5807 5808 5810 5813 5815 5816 5818 5819 5821 5821 5822 5823 5824 5825 5825 5825 5826 5826 5826 5825 5825 5825 5824 5823 5822 5821 5820 5818 5817 5816 5815 5813 5811 5810 5809 5807 5806 5804 5803 5801
5768 5773 5777 5781 5783 5786 5791 5795 5797 5799 5801 5804 5806 5808 5810 5812 5814 5815 5815 5816 5817 5818 5819 5820 5819 5820 5820 5819 5819 5819 5818 5818 5817 5816 5814 5813 5812 5810 5809 5808 5806 5805 5803 5801 5800 5799 5797 5796 5794
5760 5765 5769 5773 5774 5777 5781 5787 5789 5790 5794 5797 5799 5801 5803 5806 5807 5808 5809 5810 5811 5811 5813 5813 5813 5813 5813 5813 5813 5812 5812 5811 5810 5809 5808 5806 5805 5803 5802 5800 5799 5797 5796 5794 5793 5791 5790 5788 5786
5754 5757 5760 5763 5765 5768 5772 5777 5781 5782 5786 5789 5792 5794 5796 5798 5800 5801 5802 5803 5804 5804 5805 5806 5806 5806 5806 5806 5805 5805 5804 5803 5802 5802 5800 5799 5798 5796 5795 5793 5792 5790 5788 5787 5785 5784 5782 5780 5779
5744 5746 5750 5754 5755 5758 5763 5767 5772 5774 5777 5781 5784 5786 5788 5790 5792 5793 5794 5796 5797 5797 5797 5799 5799 5798 5798 5798 5798 5797 5796 5796 5795 5794 5793 5791 5790 5788 5787 5785 5784 5783 5781 5779 5778 5776 5774 5773 5771
5733 5737 5741 5745 5747 5749 5753 5758 5762 5766 5768 5772 5775 5777 5779 5781 5783 5784 5786 5787 5788 5789 5789 5790 5790 5790 5790 5790 5789 5789 5788 5788 5787 5786 5784 5783 5782 5780 5779 5778 5776 5775 5773 5772 5770 5768 5766 5764 5763
5724 5729 5734 5737 5738 5740 5743 5748 5754 5757 5759 5762 5765 5768 5770 5772 5773 5775 5777 5778 5780 5780 5780 5780 5781 5781 5781 5781 5780 5780 5779 5779 5778 5777 5776 5775 5773 5772 5771 5769 5768 5767 5765 5763 5762 5760 5758 5756 5754
5716 5722 5725 5727 5729 5732 5735 5737 5745 5748 5751 5753 5756 5758 5760 5762 5764 5766 5768 5769 5770 5771 5771 5771 5771 5772 5772 5772 5771 5771 5771 5770 5769 5768 5767 5766 5765 5764 5762 5761 5759 5758 5757 5755 5753 5751 5749 5747 5745
5709 5713 5715 5718 5720 5723 5727 5727 5735 5739 5742 5745 5747 5749 5751 5753 5755 5757 5758 5759 5760 5761 5761 5762 5762 5762 5762 5762 5762 5762 5761 5761 5760 5759 5758 5757 5756 5755 5754 5752 5751 5749 5748 5746 5744 5742 5740 5737 5735
5699 5703 5706 5708 5710 5714 5721 5720 5724 5731 5734 5736 5738 5739 5741 5743 5745 5747 5748 5749 5750 5751 5751 5752 5752 5752 5753 5753 5752 5752 5752 5751 5751 5750 5749 5748 5747 5746 5745 5743 5742 5741 5739 5737 5735 5733 5730 5727 5725
5689 5694 5698 5699 5701 5706 5713 5711 5716 5722 5725 5727 5729 5730 5732 5733 5735 5737 5738 5739 5740 5741 5742 5742 5742 5743 5743 5743 5743 5742 5742 5742 5742 5741 5740 5739 5739 5737 5736 5735 5733 5732 5730 5728 5725 5723 5720 5718 5715
5681 5686 5691 5694 5696 5699 5701 5703 5711 5714 5716 5718 5720 5721 5723 5724 5726 5727 5728 5729 5731 5731 5732 5732 5732 5733 5733 5733 5733 5733 5733 5733 5733 5732 5731 5731 5730 5729 5727 5726 5724 5723 5721 5718 5716 5713 5711 5708 5704
5672 5676 5683 5686 5688 5690 5691 5696 5703 5705 5708 5710 5712 5713 5714 5715 5717 5718 5719 5720 5721 5722 5722 5723 5723 5723 5724 5724 5723 5724 5724 5724 5723 5723 5722 5722 5721 5719 5718 5717 5715 5713 5711 5709 5706 5704 5701 5698 5694
5663 5669 5673 5675 5678 5680 5685 5689 5694 5697 5700 5702 5703 5705 5706 5707 5708 5709 5710 5711 5712 5712 5713 5713 5714 5714 5714 5714 5714 5715 5715 5714 5714 5714 5713 5713 5712 5710 5709 5708 5706 5704 5702 5699 5697 5694 5690 5687 5683
5654 5659 5662 5667 5670 5674 5678 5685 5687 5689 5692 5694 5696 5697 5698 5699 5700 5701 5702 5703 5703 5704 5704 5705 5705 5705 5706 5706 5706 5706 5706 5706 5705 5705 5704 5704 5703 5701 5700 5698 5697 5694 5692 5689 5686 5683 5680 5677 5673
5645 5650 5654 5659 5663 5667 5671 5678 5679 5681 5684 5686 5688 5689 5690 5691 5692 5693 5694 5695 5695 5695 5696 5696 5697 5697 5697 5697 5697 5697 5697 5697 5697 5696 5695 5695 5694 5692 5691 5689 5687 5685 5682 5679 5676 5673 5669 5665 5661